When you browse on this site, cookies collect data to enhance your experience and personalize the content and advertising you see.
Visit our Privacy Policy to learn more. By continuing to use the site, you agree to this use of cookies and data.
  • In Österreich
  • Länderverzeichnis
  • Für 7 Tage
  • Wassertemperatur
  • Wetterkarte
  • News
  • Widgets
  • user-avatar
    Anmelden

    Stündliche Wetter Jechegnadsor

    Heute, 23 August, Freitag

    Zeit Temperatur Niederschläge Wind Luftdruck Luftfeuchtigkeit
    00:00 +23°C° 0 mm 2 m/S 653 mmHg 37%
    01:00 +21°C° 0 mm 2 m/S 653 mmHg 37%
    02:00 +21°C° 0 mm 2 m/S 653 mmHg 38%
    03:00 +21°C° 0 mm 2 m/S 652 mmHg 38%
    04:00 +21°C° 0 mm 2 m/S 653 mmHg 37%
    05:00 +21°C° 0 mm 2 m/S 653 mmHg 36%
    06:00 +21°C° 0 mm 2 m/S 653 mmHg 35%
    07:00 +25°C° 0 mm 2 m/S 654 mmHg 29%
    08:00 +28°C° 0 mm 2 m/S 655 mmHg 23%
    09:00 +31°C° 0 mm 2 m/S 656 mmHg 17%
    10:00 +33°C° 0 mm 3 m/S 656 mmHg 16%
    11:00 +35°C° 0 mm 4 m/S 656 mmHg 15%
    12:00 +36°C° 0 mm 5 m/S 656 mmHg 13%
    13:00 +36°C° 0 mm 5 m/S 655 mmHg 13%
    14:00 +38°C° 0 mm 6 m/S 655 mmHg 12%
    15:00 +38°C° 0 mm 6 m/S 655 mmHg 12%
    16:00 +36°C° 0 mm 5 m/S 654 mmHg 18%
    17:00 +34°C° 0 mm 5 m/S 654 mmHg 24%
    18:00 +32°C° 0 mm 4 m/S 653 mmHg 30%
    19:00 +28°C° 0 mm 4 m/S 653 mmHg 37%
    20:00 +26°C° 0 mm 4 m/S 653 mmHg 45%
    21:00 +22°C° 0 mm 4 m/S 653 mmHg 52%
    22:00 +22°C° 0 mm 3 m/S 653 mmHg 50%
    23:00 +22°C° 0 mm 3 m/S 653 mmHg 48%

    Morgen, 24 August, Samstag

    Zeit Temperatur Niederschläge Wind Luftdruck Luftfeuchtigkeit
    00:00 +21°C° 0 mm 2 m/S 653 mmHg 46%
    01:00 +21°C° 0 mm 2 m/S 653 mmHg 45%
    02:00 +21°C° 0 mm 2 m/S 653 mmHg 44%
    03:00 +21°C° 0 mm 1 m/S 653 mmHg 43%
    04:00 +21°C° 0 mm 1 m/S 653 mmHg 43%
    05:00 +22°C° 0 mm 1 m/S 653 mmHg 43%
    06:00 +22°C° 0 mm 1 m/S 653 mmHg 43%
    07:00 +24°C° 0 mm 1 m/S 654 mmHg 36%
    08:00 +27°C° 0 mm 1 m/S 655 mmHg 30%
    09:00 +30°C° 0 mm 2 m/S 656 mmHg 23%
    10:00 +31°C° 0 mm 3 m/S 656 mmHg 21%
    11:00 +33°C° 0 mm 4 m/S 656 mmHg 18%
    12:00 +35°C° 0 mm 5 m/S 656 mmHg 16%
    13:00 +35°C° 0 mm 4 m/S 656 mmHg 15%
    14:00 +35°C° 0 mm 4 m/S 655 mmHg 14%
    15:00 +35°C° 0 mm 3 m/S 655 mmHg 13%
    16:00 +34°C° 0 mm 3 m/S 655 mmHg 17%
    17:00 +32°C° 0 mm 2 m/S 655 mmHg 21%
    18:00 +31°C° 0 mm 1 m/S 654 mmHg 25%
    19:00 +29°C° 0.1 mm 2 m/S 655 mmHg 35%
    20:00 +26°C° 0.1 mm 2 m/S 655 mmHg 44%
    21:00 +24°C° 0.1 mm 3 m/S 655 mmHg 53%
    22:00 +23°C° 0 mm 2 m/S 655 mmHg 56%
    23:00 +21°C° 0 mm 2 m/S 654 mmHg 59%

    übermorgen, 25 August, Sonntag

    Zeit Temperatur Niederschläge Wind Luftdruck Luftfeuchtigkeit
    00:00 +20°C° 0 mm 2 m/S 654 mmHg 62%
    01:00 +21°C° 0 mm 1 m/S 654 mmHg 60%
    02:00 +21°C° 0 mm 1 m/S 654 mmHg 58%
    03:00 +21°C° 0 mm 1 m/S 654 mmHg 56%
    04:00 +21°C° 0 mm 1 m/S 654 mmHg 54%
    05:00 +21°C° 0 mm 1 m/S 654 mmHg 53%
    06:00 +21°C° 0 mm 1 m/S 654 mmHg 52%
    07:00 +24°C° 0 mm 1 m/S 655 mmHg 45%
    08:00 +26°C° 0 mm 1 m/S 655 mmHg 39%
    09:00 +29°C° 0 mm 2 m/S 656 mmHg 32%
    10:00 +30°C° 0 mm 2 m/S 656 mmHg 29%
    11:00 +31°C° 0 mm 3 m/S 656 mmHg 26%
    12:00 +33°C° 0 mm 3 m/S 656 mmHg 24%
    13:00 +34°C° 0 mm 3 m/S 655 mmHg 22%
    14:00 +34°C° 0 mm 3 m/S 655 mmHg 21%
    15:00 +35°C° 0 mm 3 m/S 655 mmHg 19%
    16:00 +34°C° 0 mm 3 m/S 655 mmHg 22%
    17:00 +32°C° 0 mm 2 m/S 654 mmHg 25%
    18:00 +31°C° 0 mm 2 m/S 654 mmHg 28%
    19:00 +29°C° 0 mm 2 m/S 654 mmHg 36%
    20:00 +26°C° 0 mm 2 m/S 654 mmHg 45%
    21:00 +24°C° 0 mm 3 m/S 654 mmHg 54%
    22:00 +23°C° 0 mm 2 m/S 654 mmHg 54%
    23:00 +23°C° 0 mm 2 m/S 654 mmHg 55%

    26 August, Montag

    Zeit Temperatur Niederschläge Wind Luftdruck Luftfeuchtigkeit
    00:00 +21°C° 0 mm 2 m/S 654 mmHg 55%
    01:00 +21°C° 0 mm 2 m/S 654 mmHg 55%
    02:00 +21°C° 0 mm 2 m/S 653 mmHg 54%
    03:00 +21°C° 0 mm 2 m/S 653 mmHg 53%
    04:00 +22°C° 0 mm 1 m/S 654 mmHg 53%
    05:00 +22°C° 0 mm 1 m/S 654 mmHg 52%
    06:00 +22°C° 0 mm 1 m/S 654 mmHg 51%
    07:00 +24°C° 0 mm 1 m/S 655 mmHg 44%
    08:00 +27°C° 0 mm 1 m/S 655 mmHg 37%
    09:00 +30°C° 0 mm 1 m/S 656 mmHg 30%
    10:00 +31°C° 0 mm 2 m/S 656 mmHg 27%
    11:00 +33°C° 0 mm 3 m/S 656 mmHg 24%
    12:00 +35°C° 0 mm 3 m/S 656 mmHg 22%
    13:00 +35°C° 0 mm 4 m/S 656 mmHg 20%
    14:00 +36°C° 0 mm 4 m/S 656 mmHg 19%
    15:00 +36°C° 0 mm 4 m/S 655 mmHg 17%
    16:00 +35°C° 0 mm 4 m/S 655 mmHg 22%
    17:00 +33°C° 0 mm 3 m/S 655 mmHg 26%
    18:00 +30°C° 0 mm 3 m/S 655 mmHg 30%
    19:00 +28°C° 0.1 mm 3 m/S 655 mmHg 35%
    20:00 +26°C° 0.1 mm 3 m/S 655 mmHg 40%
    21:00 +24°C° 0.1 mm 2 m/S 655 mmHg 45%
    22:00 +24°C° 0.1 mm 2 m/S 655 mmHg 48%
    23:00 +23°C° 0.1 mm 2 m/S 655 mmHg 51%

    27 August, Dienstag

    Zeit Temperatur Niederschläge Wind Luftdruck Luftfeuchtigkeit
    00:00 +21°C° 0.1 mm 2 m/S 655 mmHg 54%
    01:00 +21°C° 0.1 mm 2 m/S 655 mmHg 56%
    02:00 +20°C° 0.1 mm 2 m/S 655 mmHg 59%
    03:00 +19°C° 0.1 mm 2 m/S 654 mmHg 61%
    04:00 +20°C° 0 mm 2 m/S 654 mmHg 60%
    05:00 +21°C° 0 mm 1 m/S 655 mmHg 59%
    06:00 +21°C° 0 mm 1 m/S 655 mmHg 57%
    07:00 +23°C° 0 mm 1 m/S 655 mmHg 50%
    08:00 +26°C° 0 mm 2 m/S 656 mmHg 43%
    09:00 +28°C° 0 mm 2 m/S 656 mmHg 35%
    10:00 +29°C° 0 mm 3 m/S 656 mmHg 32%
    11:00 +31°C° 0 mm 3 m/S 656 mmHg 28%
    12:00 +33°C° 0 mm 4 m/S 656 mmHg 24%
    13:00 +34°C° 0 mm 4 m/S 656 mmHg 22%
    14:00 +35°C° 0 mm 4 m/S 655 mmHg 20%
    15:00 +35°C° 0 mm 4 m/S 655 mmHg 18%
    16:00 +34°C° 0.1 mm 4 m/S 655 mmHg 23%
    17:00 +32°C° 0.1 mm 4 m/S 654 mmHg 29%
    18:00 +30°C° 0.1 mm 4 m/S 654 mmHg 34%
    19:00 +28°C° 0 mm 3 m/S 654 mmHg 40%
    20:00 +26°C° 0 mm 3 m/S 654 mmHg 47%
    21:00 +24°C° 0 mm 3 m/S 653 mmHg 53%
    22:00 +24°C° 0 mm 2 m/S 653 mmHg 54%
    23:00 +23°C° 0 mm 2 m/S 653 mmHg 55%

    28 August, Mittwoch

    Zeit Temperatur Niederschläge Wind Luftdruck Luftfeuchtigkeit
    00:00 +22°C° 0 mm 1 m/S 653 mmHg 55%
    01:00 +22°C° 0 mm 1 m/S 653 mmHg 56%
    02:00 +21°C° 0 mm 1 m/S 653 mmHg 56%
    03:00 +21°C° 0 mm 1 m/S 652 mmHg 57%
    04:00 +21°C° 0 mm 1 m/S 653 mmHg 56%
    05:00 +21°C° 0 mm 1 m/S 653 mmHg 56%
    06:00 +21°C° 0 mm 1 m/S 653 mmHg 55%
    07:00 +23°C° 0 mm 1 m/S 654 mmHg 49%
    08:00 +25°C° 0 mm 2 m/S 654 mmHg 42%
    09:00 +28°C° 0 mm 2 m/S 655 mmHg 35%
    10:00 +29°C° 0 mm 3 m/S 655 mmHg 32%
    11:00 +30°C° 0 mm 3 m/S 655 mmHg 28%
    12:00 +32°C° 0 mm 4 m/S 655 mmHg 24%
    13:00 +33°C° 0 mm 4 m/S 655 mmHg 22%
    14:00 +34°C° 0 mm 3 m/S 655 mmHg 20%
    15:00 +34°C° 0 mm 3 m/S 654 mmHg 18%
    16:00 +33°C° 0 mm 3 m/S 654 mmHg 21%
    17:00 +31°C° 0 mm 2 m/S 654 mmHg 25%
    18:00 +30°C° 0 mm 2 m/S 654 mmHg 28%
    19:00 +28°C° 0 mm 2 m/S 654 mmHg 38%
    20:00 +25°C° 0 mm 2 m/S 654 mmHg 48%
    21:00 +22°C° 0 mm 3 m/S 654 mmHg 58%
    22:00 +21°C° 0 mm 2 m/S 654 mmHg 59%
    23:00 +21°C° 0 mm 2 m/S 654 mmHg 61%
    Mehr zeigen